Погода в Ягодном

Россия / Самарская область     53°36′39″N   49°02′21″E
темп.,
°C
ветер,
м/с
пор.,
м/с
влажн.,
%
обл.,
%
осадки,
мм/ч
давл.,
гПа
погр.,
м
17 мая, вт
вт1701:00+9з358678 0.1 100295
04:00+9зсз5990100 0.1 1002297
07:00+8зсз588988 1.7 1002501
10:00+12з576838 2.3 10021216
13:00+13зюз675966 1.1 10021424
16:00+13зюз676286 3.5 10021195
19:00+11зюз477198 0.6 1002451
22:00+8юз117973 0.6 100210
18 мая, ср
ср1801:00+7юз228498 0.0 100226
04:00+7з3691100 0.1 1001200
07:00+7юз1290100 1.1 1002155
10:00+8зюз2287100 1.6 1003323
13:00+10зюз447985 0.1 1004668
16:00+13сз576758 1.5 10041075
19:00+11сз6108265 1.4 1006575
22:00+9сз2492100 1.6 1008166
19 мая, чт
чт1901:00+8зсз4793100 0.3 1009329
04:00+8зсз4793100 0.4 1010376
07:00+7зсз69845 0.1 1011409
10:00+10зсз687185 0.3 10111167
13:00+11зсз5760100 0.2 10111524
16:00+11з5661100 0.3 10111028
19:00+11зюз246310 0.0 1010220
22:00+7зсз698378 0.4 1011642
20 мая, пт
пт2001:00+6сз6874100 0.1 1011972
04:00+5сз588750 0.2 1011565
07:00+6сз610770 0.0 1012695
10:00+9сз685578 0.0 10111810
13:00+9сз895892 0.7 10111773
16:00+8ссз9106752 2.3 10121478
19:00+7сз711735 0.2 10131120
22:00+6сз613775 0.2 1013564
21 мая, сб
сб2101:00+4сз49835 0.0 1013265
04:00+3зсз47855 0.0 1013149
07:00+6зсз47741 0.0 1013276
10:00+10зсз45545 0.0 10121316
13:00+11зсз2350100 0.2 10111572
16:00+12св124982 0.5 10091465
19:00+10св456896 0.3 1008196
22:00+7св117126 0.4 100811